KC0UFP Weather Reports


Display with metric or nautical units.
time (UTC)temp
F
wind
direction
speed
MPH
gust
MPH
rain 1hr
in
rain 24hr
in
rain mn
in
humidity
%
barometer
mb
20260906044143 83 316 2.0 3.0 0.00 0.00 0.00 79 1011.8
20260906043639 82 329 2.0 3.0 0.00 0.00 0.00 80 1011.8
20260906043134 82 296 1.0 2.0 0.00 0.00 0.00 81 1011.8
20260906042634 82 292 2.0 3.0 0.00 0.00 0.00 82 1011.8
20260906042128 82 304 2.0 5.0 0.00 0.00 0.00 82 1011.7
20260906041623 82 291 2.0 6.0 0.00 0.00 0.00 81 1011.6
20260906041118 83 299 2.0 2.0 0.00 0.00 0.00 81 1011.5
20260906040614 83 294 2.0 3.0 0.00 0.00 0.00 79 1011.4
20260906040109 84 314 1.0 3.0 0.00 0.00 0.00 79 1011.7
20260906035604 84 304 2.0 3.0 0.00 0.00 0.00 77 1011.6
20260906035100 84 316 2.0 3.0 0.00 0.00 0.00 74 1011.7
20260906034600 85 299 2.0 2.0 0.00 0.00 0.00 73 1011.5
20260906034055 86 293 2.0 2.0 0.00 0.00 0.00 72 1011.6
20260906033550 86 289 2.0 3.0 0.00 0.00 0.00 71 1011.6
20260906033045 86 294 2.0 2.0 0.00 0.00 0.00 71 1011.6
20260906032542 86 291 2.0 3.0 0.00 0.00 0.00 72 1011.7
20260906032036 86 284 2.0 3.0 0.00 0.00 0.00 71 1011.7
20260906031532 86 273 2.0 3.0 0.00 0.00 0.00 70 1011.8
20260906031028 86 297 2.0 3.0 0.00 0.00 0.00 71 1011.8
20260906030527 86 279 2.0 2.0 0.00 0.00 0.00 72 1011.7
20260906030027 86 277 1.0 2.0 0.00 0.00 0.00 72 1011.6
20260906025526 86 274 1.0 2.0 0.00 0.00 0.00 72 1011.5
20260906025024 86 271 1.0 2.0 0.00 0.00 0.00 71 1011.5
20260906024519 86 276 2.0 2.0 0.00 0.00 0.00 70 1011.6
20260906024014 87 292 1.0 2.0 0.00 0.00 0.00 70 1011.6
20260906023510 87 291 2.0 2.0 0.00 0.00 0.00 69 1011.5
20260906023005 87 276 2.0 2.0 0.00 0.00 0.00 68 1011.5
20260906022500 88 267 2.0 3.0 0.00 0.00 0.00 68 1011.5
20260906021955 88 274 2.0 3.0 0.00 0.00 0.00 68 1011.3
20260906021450 87 281 2.0 2.0 0.00 0.00 0.00 67 1011.2
20260906020945 87 288 1.0 2.0 0.00 0.00 0.00 67 1011.1
20260906020439 88 305 1.0 2.0 0.00 0.00 0.00 68 1011.0
20260906015938 88 269 2.0 2.0 0.00 0.00 0.00 67 1011.1
20260906015433 87 269 2.0 2.0 0.00 0.00 0.00 66 1010.9
20260906014933 87 287 1.0 2.0 0.00 0.00 0.00 67 1010.5
20260906014432 88 269 1.0 2.0 0.00 0.00 0.00 66 1010.8
20260906013929 88 284 0.0 2.0 0.00 0.00 0.00 65 1010.7
20260906013424 88 302 1.0 2.0 0.00 0.00 0.00 64 1010.6
20260906012920 89 302 2.0 3.0 0.00 0.00 0.00 63 1010.9
20260906012419 89 300 1.0 2.0 0.00 0.00 0.00 63 1010.6
20260906011918 89 235 0.0 1.0 0.00 0.00 0.00 62 1010.5
20260906011414 89 212 1.0 2.0 0.00 0.00 0.00 61 1010.4
20260906010909 89 269 0.0 2.0 0.00 0.00 0.00 61 1010.3
20260906010405 90 55 0.0 1.0 0.00 0.00 0.00 62 1010.4
20260906005901 90 297 0.0 0.0 0.00 0.00 0.00 61 1010.4
20260906005400 91 297 0.0 0.0 0.00 0.00 0.00 60 1010.2
20260906004859 91 297 0.0 0.0 0.00 0.00 0.00 59 1010.6
20260906004353 90 304 0.0 1.0 0.00 0.00 0.00 59 1010.4
20260906003848 91 316 1.0 2.0 0.00 0.00 0.00 59 1010.3
20260906003344 91 281 1.0 2.0 0.00 0.00 0.00 58 1010.3
20260906002839 92 269 0.0 1.0 0.00 0.00 0.00 58 1010.4
20260906002338 92 272 1.0 2.0 0.00 0.00 0.00 57 1010.4
20260906001834 93 269 0.0 1.0 0.00 0.00 0.00 56 1010.4
20260906001329 94 278 1.0 2.0 0.00 0.00 0.00 56 1010.5
20260906000825 94 269 1.0 2.0 0.00 0.00 0.00 55 1010.3
20260906000319 95 203 0.0 3.0 0.00 0.00 0.00 54 1010.7
20260905235820 95 198 2.0 3.0 0.00 0.00 0.00 54 1010.4
20260905235314 95 194 2.0 3.0 0.00 0.00 0.00 53 1010.6
20260905234809 96 192 2.0 3.0 0.00 0.00 0.00 50 1010.5
20260905234305 96 182 1.0 3.0 0.00 0.00 0.00 52 1010.6
20260905233759 96 216 1.0 3.0 0.00 0.00 0.00 51 1010.6
20260905233254 96 189 2.0 3.0 0.00 0.00 0.00 51 1010.5
20260905232753 96 203 1.0 3.0 0.00 0.00 0.00 50 1010.7
20260905232249 96 187 2.0 2.0 0.00 0.00 0.00 51 1010.9
20260905231745 96 148 3.0 5.0 0.00 0.00 0.00 50 1010.7
20260905231240 97 176 3.0 4.0 0.00 0.00 0.00 50 1010.7
20260905230736 97 168 2.0 4.0 0.00 0.00 0.00 48 1010.6
20260905230233 98 216 2.0 4.0 0.00 0.00 0.00 47 1010.5
20260905225728 98 197 2.0 4.0 0.00 0.00 0.00 47 1010.6
20260905225223 98 176 3.0 6.0 0.00 0.00 0.00 47 1010.4
20260905224722 98 185 3.0 5.0 0.00 0.00 0.00 47 1010.8
20260905224218 98 172 2.0 4.0 0.00 0.00 0.00 45 1010.5
20260905223714 98 173 5.0 6.0 0.00 0.00 0.00 43 1010.6
20260905223210 98 145 4.0 7.0 0.00 0.00 0.00 44 1010.5
20260905222706 99 160 3.0 5.0 0.00 0.00 0.00 43 1010.6
20260905222205 99 169 4.0 6.0 0.00 0.00 0.00 44 1010.3
20260905221701 99 156 4.0 7.0 0.00 0.00 0.00 43 1010.7
20260905221158 99 167 6.0 7.0 0.00 0.00 0.00 42 1010.6
20260905220653 100 164 6.0 9.0 0.00 0.00 0.00 43 1010.5
20260905220149 99 160 5.0 6.0 0.00 0.00 0.00 45 1010.7
20260905215649 99 172 3.0 7.0 0.00 0.00 0.00 42 1010.7
20260905215144 99 166 5.0 6.0 0.00 0.00 0.00 42 1010.6
20260905214640 99 141 3.0 6.0 0.00 0.00 0.00 41 1010.7
20260905214135 99 176 4.0 10.0 0.00 0.00 0.00 42 1010.8
20260905213630 99 176 3.0 7.0 0.00 0.00 0.00 41 1010.6
20260905213126 99 176 4.0 7.0 0.00 0.00 0.00 43 1010.8
20260905212621 101 175 5.0 6.0 0.00 0.00 0.00 44 1010.9
20260905212121 100 262 4.0 5.0 0.00 0.00 0.00 42 1010.6
20260905211615 100 198 3.0 7.0 0.00 0.00 0.00 42 1010.8
20260905211111 100 193 4.0 6.0 0.00 0.00 0.00 43 1010.7
20260905210607 100 191 4.0 6.0 0.00 0.00 0.00 42 1010.8
20260905205601 101 211 3.0 5.0 0.00 0.00 0.00 41 1010.8
20260905205101 101 213 2.0 6.0 0.00 0.00 0.00 41 1010.9
20260905204555 101 221 4.0 6.0 0.00 0.00 0.00 41 1011.1
20260905204050 100 170 4.0 8.0 0.00 0.00 0.00 43 1011.2
20260905203550 101 170 7.0 7.0 0.00 0.00 0.00 42 1011.2
20260905203046 100 176 2.0 8.0 0.00 0.00 0.00 42 1011.3
20260905202541 100 178 4.0 8.0 0.00 0.00 0.00 42 1011.4
20260905202036 100 201 3.0 7.0 0.00 0.00 0.00 42 1011.7
20260905201532 100 182 4.0 9.0 0.00 0.00 0.00 42 1011.5
20260905201031 100 293 2.0 7.0 0.00 0.00 0.00 41 1011.6
20260905200527 100 307 5.0 9.0 0.00 0.00 0.00 42 1011.6
20260905200026 100 37 3.0 7.0 0.00 0.00 0.00 41 1011.6
20260905195520 100 98 4.0 7.0 0.00 0.00 0.00 41 1011.9
20260905195016 99 186 3.0 5.0 0.00 0.00 0.00 42 1011.9
20260905194510 99 36 2.0 8.0 0.00 0.00 0.00 42 1012.1
20260905194010 100 80 2.0 8.0 0.00 0.00 0.00 42 1012.2
20260905193504 99 0 0.0 8.0 0.00 0.00 0.00 43 1012.2
20260905192959 100 324 4.0 7.0 0.00 0.00 0.00 42 1012.5
20260905192454 100 6 4.0 7.0 0.00 0.00 0.00 43 1012.5
20260905191950 100 272 3.0 7.0 0.00 0.00 0.00 43 1012.4
20260905191444 101 274 5.0 6.0 0.00 0.00 0.00 43 1012.7
20260905190943 100 78 2.0 5.0 0.00 0.00 0.00 43 1012.7
20260905190441 99 198 0.0 3.0 0.00 0.00 0.00 45 1012.9
20260905185940 97 50 0.0 4.0 0.00 0.00 0.00 47 1012.8
20260905185436 98 322 1.0 5.0 0.00 0.00 0.00 46 1013.1
20260905184934 98 328 2.0 3.0 0.00 0.00 0.00 46 1013.1
20260905184429 97 28 3.0 6.0 0.00 0.00 0.00 47 1012.9
20260905183928 98 316 2.0 7.0 0.00 0.00 0.00 47 1012.8
20260905183422 99 7 2.0 4.0 0.00 0.00 0.00 46 1013.0
20260905182918 100 315 5.0 7.0 0.00 0.00 0.00 44 1013.1
20260905182416 101 288 4.0 6.0 0.00 0.00 0.00 43 1012.8
20260905181913 101 333 3.0 5.0 0.00 0.00 0.00 42 1013.0
20260905181413 99 193 3.0 5.0 0.00 0.00 0.00 44 1013.1
20260905180912 98 269 1.0 3.0 0.00 0.00 0.00 45 1013.2
20260905180406 96 340 2.0 5.0 0.00 0.00 0.00 46 1013.1
20260905175901 96 321 2.0 5.0 0.00 0.00 0.00 46 1013.1
20260905175401 98 312 4.0 6.0 0.00 0.00 0.00 46 1013.2
20260905174855 99 74 8.0 8.0 0.00 0.00 0.00 46 1013.1
20260905174352 100 273 2.0 5.0 0.00 0.00 0.00 44 1013.1
20260905173847 100 286 2.0 7.0 0.00 0.00 0.00 44 1013.3
20260905173343 99 278 6.0 9.0 0.00 0.00 0.00 44 1013.3
20260905172838 97 52 4.0 8.0 0.00 0.00 0.00 45 1013.1
20260905172336 98 6 4.0 8.0 0.00 0.00 0.00 47 1013.4
20260905171832 99 306 5.0 8.0 0.00 0.00 0.00 46 1013.4
20260905171329 98 293 5.0 10.0 0.00 0.00 0.00 45 1013.5
20260905170825 98 297 4.0 7.0 0.00 0.00 0.00 45 1013.8
20260905170320 98 298 5.0 9.0 0.00 0.00 0.00 45 1013.8
20260905165820 99 267 6.0 6.0 0.00 0.00 0.00 45 1013.9
20260905165315 98 290 7.0 8.0 0.00 0.00 0.00 47 1013.7
20260905164815 98 306 3.0 6.0 0.00 0.00 0.00 49 1014.0
20260905164310 97 279 3.0 7.0 0.00 0.00 0.00 50 1013.7
20260905163805 96 280 3.0 6.0 0.00 0.00 0.00 50 1014.2
20260905163302 97 352 3.0 7.0 0.00 0.00 0.00 50 1014.1
20260905162757 97 26 4.0 6.0 0.00 0.00 0.00 49 1014.0
20260905162257 96 352 5.0 13.0 0.00 0.00 0.00 50 1014.1
20260905161752 96 351 4.0 8.0 0.00 0.00 0.00 52 1014.3
20260905161250 97 318 3.0 6.0 0.00 0.00 0.00 50 1014.2
20260905160749 96 268 2.0 5.0 0.00 0.00 0.00 52 1014.1
20260905160243 95 314 3.0 7.0 0.00 0.00 0.00 53 1014.1
20260905155738 96 323 4.0 6.0 0.00 0.00 0.00 51 1014.3
20260905155237 95 6 3.0 7.0 0.00 0.00 0.00 53 1014.2
20260905154731 95 7 4.0 8.0 0.00 0.00 0.00 54 1014.1
20260905154227 94 18 4.0 7.0 0.00 0.00 0.00 56 1014.4
20260905153723 94 29 6.0 9.0 0.00 0.00 0.00 56 1014.5
20260905153219 94 59 2.0 6.0 0.00 0.00 0.00 58 1014.5
20260905152713 94 359 5.0 9.0 0.00 0.00 0.00 58 1014.4
20260905152207 93 358 2.0 8.0 0.00 0.00 0.00 60 1014.3
20260905151707 93 8 2.0 6.0 0.00 0.00 0.00 61 1014.3
20260905151203 92 0 2.0 8.0 0.00 0.00 0.00 60 1014.3
20260905150658 93 13 5.0 6.0 0.00 0.00 0.00 61 1014.4
20260905150157 92 45 3.0 7.0 0.00 0.00 0.00 62 1014.5
20260905145655 92 50 3.0 7.0 0.00 0.00 0.00 62 1014.2
20260905145149 91 309 4.0 6.0 0.00 0.00 0.00 64 1014.4
20260905144643 92 355 3.0 5.0 0.00 0.00 0.00 64 1014.2
20260905144143 92 344 1.0 5.0 0.00 0.00 0.00 66 1014.4
20260905143637 90 15 3.0 7.0 0.00 0.00 0.00 67 1014.3
20260905143132 90 24 4.0 5.0 0.00 0.00 0.00 66 1014.5
20260905142630 90 20 2.0 6.0 0.00 0.00 0.00 67 1014.1
20260905142125 89 33 5.0 7.0 0.00 0.00 0.00 67 1014.3
20260905141625 88 30 5.0 6.0 0.00 0.00 0.00 66 1014.3
20260905141121 88 326 0.0 6.0 0.00 0.00 0.00 67 1014.2
20260905140616 88 29 5.0 7.0 0.00 0.00 0.00 67 1014.2
20260905140115 89 334 3.0 5.0 0.00 0.00 0.00 68 1014.2
20260905135611 89 351 2.0 5.0 0.00 0.00 0.00 70 1014.1
20260905135106 88 303 2.0 4.0 0.00 0.00 0.00 72 1014.1
20260905134601 87 334 1.0 3.0 0.00 0.00 0.00 75 1014.1
20260905134059 86 311 0.0 5.0 0.00 0.00 0.00 75 1014.3
20260905133555 84 28 2.0 3.0 0.00 0.00 0.00 79 1014.3
20260905133055 84 0 2.0 4.0 0.00 0.00 0.00 80 1014.1
20260905132554 84 17 1.0 3.0 0.00 0.00 0.00 81 1014.3
20260905132049 84 22 2.0 3.0 0.00 0.00 0.00 80 1014.0
20260905131545 84 358 0.0 3.0 0.00 0.00 0.00 79 1014.1
20260905131040 82 251 1.0 3.0 0.00 0.00 0.00 84 1014.2
20260905130539 81 198 1.0 3.0 0.00 0.00 0.00 86 1014.1
20260905130034 80 169 1.0 3.0 0.00 0.00 0.00 87 1014.1
20260905125534 80 188 1.0 2.0 0.00 0.00 0.00 89 1014.1
20260905125029 80 213 2.0 3.0 0.00 0.00 0.00 89 1014.1
20260905124526 80 191 2.0 3.0 0.00 0.00 0.00 89 1014.0
20260905124021 79 212 0.0 2.0 0.00 0.00 0.00 88 1013.9
20260905123517 79 180 2.0 4.0 0.00 0.00 0.00 88 1014.0
20260905123013 79 235 0.0 3.0 0.00 0.00 0.00 88 1013.6
20260905122507 78 336 2.0 3.0 0.00 0.00 0.00 89 1013.7
20260905122003 78 336 2.0 3.0 0.00 0.00 0.00 90 1013.7
20260905121457 77 15 2.0 2.0 0.00 0.00 0.00 91 1013.7
20260905120956 77 268 0.0 1.0 0.00 0.00 0.00 92 1013.6
20260905120451 76 296 0.0 2.0 0.00 0.00 0.00 93 1013.2
20260905115946 76 288 0.0 2.0 0.00 0.00 0.00 94 1013.2
20260905115445 75 269 0.0 2.0 0.00 0.00 0.00 94 1013.4
20260905114940 75 294 0.0 3.0 0.00 0.00 0.00 94 1013.2
20260905114440 75 326 2.0 3.0 0.00 0.00 0.00 94 1013.2
20260905113939 75 296 1.0 2.0 0.00 0.00 0.00 93 1013.4
20260905113434 76 316 2.0 2.0 0.00 0.00 0.00 93 1013.3
20260905112929 76 321 1.0 2.0 0.00 0.00 0.00 93 1013.3
20260905112425 76 296 2.0 3.0 0.00 0.00 0.00 92 1013.2
20260905111920 76 295 2.0 3.0 0.00 0.00 0.00 93 1013.1
20260905111414 76 294 2.0 3.0 0.00 0.00 0.00 92 1013.4
20260905110908 76 292 1.0 3.0 0.00 0.00 0.00 93 1013.1
20260905110402 76 273 2.0 3.0 0.00 0.00 0.00 92 1013.2
20260905105857 76 287 2.0 3.0 0.00 0.00 0.00 92 1013.0
20260905105356 77 305 2.0 3.0 0.00 0.00 0.00 92 1013.0
20260905104850 77 318 3.0 3.0 0.00 0.00 0.00 92 1013.2
20260905104347 77 291 2.0 3.0 0.00 0.00 0.00 92 1013.0
20260905103847 76 297 2.0 3.0 0.00 0.00 0.00 94 1012.9
20260905103343 76 269 0.0 2.0 0.00 0.00 0.00 94 1013.2
20260905102838 76 309 0.0 1.0 0.00 0.00 0.00 93 1013.2
20260905102335 76 250 0.0 3.0 0.00 0.00 0.00 93 1013.0
20260905101835 76 182 4.0 5.0 0.00 0.00 0.00 93 1013.1
20260905101333 76 284 0.0 0.0 0.00 0.00 0.00 93 1013.3
20260905100827 76 309 0.0 1.0 0.00 0.00 0.00 92 1013.4
20260905100324 76 195 0.0 1.0 0.00 0.00 0.00 92 1013.1
20260905095823 76 242 0.0 2.0 0.00 0.00 0.00 92 1013.1
20260905095317 76 309 0.0 1.0 0.00 0.00 0.00 92 1013.1
20260905094811 77 311 0.0 2.0 0.00 0.00 0.00 91 1013.1
20260905094308 77 305 1.0 3.0 0.00 0.00 0.00 91 1013.0
20260905093806 76 284 2.0 3.0 0.00 0.00 0.00 92 1012.9
20260905093302 76 255 0.0 1.0 0.00 0.00 0.00 92 1013.2
20260905092758 76 288 0.0 2.0 0.00 0.00 0.00 91 1013.3
20260905092253 77 339 0.0 2.0 0.00 0.00 0.00 91 1013.0
20260905091753 77 22 0.0 1.0 0.00 0.00 0.00 90 1013.1
20260905091247 77 311 0.0 2.0 0.00 0.00 0.00 90 1012.8
20260905090746 77 325 2.0 3.0 0.00 0.00 0.00 90 1013.0
20260905090242 77 317 2.0 3.0 0.00 0.00 0.00 90 1012.9
20260905085741 77 290 2.0 2.0 0.00 0.00 0.00 90 1013.2
20260905085236 77 326 1.0 2.0 0.00 0.00 0.00 90 1012.8
20260905084736 77 314 1.0 2.0 0.00 0.00 0.00 90 1012.9
20260905084236 77 315 0.0 2.0 0.00 0.00 0.00 89 1012.9
20260905083731 78 317 0.0 2.0 0.00 0.00 0.00 89 1012.9
20260905083226 78 304 0.0 1.0 0.00 0.00 0.00 88 1013.1
20260905082722 78 269 0.0 2.0 0.00 0.00 0.00 88 1012.8
20260905082218 78 293 1.0 2.0 0.00 0.00 0.00 88 1012.7
20260905081712 78 307 2.0 3.0 0.00 0.00 0.00 87 1013.0
20260905081208 79 311 1.0 2.0 0.00 0.00 0.00 86 1012.8
20260905080706 79 304 1.0 2.0 0.00 0.00 0.00 86 1013.0
20260905080201 79 293 2.0 2.0 0.00 0.00 0.00 87 1013.2
20260905075700 79 281 1.0 2.0 0.00 0.00 0.00 86 1013.2
20260905075159 79 294 0.0 1.0 0.00 0.00 0.00 86 1013.2
20260905074658 79 333 2.0 3.0 0.00 0.00 0.00 85 1013.2
20260905074154 79 271 0.0 2.0 0.00 0.00 0.00 85 1013.1
20260905073650 80 300 1.0 3.0 0.00 0.00 0.00 85 1013.1
20260905073146 80 305 2.0 2.0 0.00 0.00 0.00 84 1012.9
20260905072645 80 308 2.0 3.0 0.00 0.00 0.00 84 1013.1
20260905072140 80 186 0.0 2.0 0.00 0.00 0.00 83 1013.0
20260905071637 80 224 2.0 2.0 0.00 0.00 0.00 83 1013.1
20260905071132 80 229 0.0 2.0 0.00 0.00 0.00 83 1013.0
20260905070627 80 154 0.0 2.0 0.00 0.00 0.00 83 1013.1
20260905070123 80 131 0.0 2.0 0.00 0.00 0.00 83 1013.0
20260905065621 80 136 0.0 1.0 0.00 0.00 0.00 83 1012.9
20260905065116 80 50 0.0 0.0 0.00 0.00 0.00 83 1013.1
20260905064611 80 22 0.0 2.0 0.00 0.00 0.00 83 1013.1
20260905064107 80 76 0.0 2.0 0.00 0.00 0.00 84 1013.1
20260905063605 80 46 0.0 3.0 0.00 0.00 0.00 83 1013.0
20260905063102 81 113 0.0 2.0 0.00 0.00 0.00 82 1013.0
20260905062557 81 111 1.0 2.0 0.00 0.00 0.00 81 1013.1
20260905062051 82 84 0.0 2.0 0.00 0.00 0.00 80 1013.0
20260905061546 82 89 0.0 1.0 0.00 0.00 0.00 80 1013.2
20260905061045 82 122 1.0 2.0 0.00 0.00 0.00 80 1013.1
20260905060541 81 115 1.0 2.0 0.00 0.00 0.00 81 1013.1
20260905060037 82 89 0.0 0.0 0.00 0.00 0.00 81 1013.1
20260905055535 81 66 0.0 2.0 0.00 0.00 0.00 83 1013.3
20260905055030 80 129 0.0 1.0 0.00 0.00 0.00 84 1013.3
20260905054526 81 75 0.0 1.0 0.00 0.00 0.00 84 1013.3
20260905054022 80 32 0.0 1.0 0.00 0.00 0.00 85 1013.3
20260905053521 81 29 1.0 2.0 0.00 0.00 0.00 84 1013.2
20260905053017 81 62 0.0 2.0 0.00 0.00 0.00 84 1013.4
20260905052516 81 81 1.0 2.0 0.00 0.00 0.00 84 1013.1
20260905052010 81 311 1.0 2.0 0.00 0.00 0.00 84 1013.1
20260905051506 81 340 0.0 1.0 0.00 0.00 0.00 83 1013.0
20260905051003 81 25 0.0 1.0 0.00 0.00 0.00 83 1013.2
20260905050458 81 322 0.0 0.0 0.00 0.00 0.00 84 1013.2
20260905045954 81 326 0.0 1.0 0.00 0.00 0.00 84 1013.2
20260905045449 81 315 0.0 0.0 0.00 0.00 0.00 83 1013.2
20260905044944 82 297 0.0 1.0 0.00 0.00 0.00 82 1013.2